^^
Station Historical Data
Daily Summary for June 19, 2017 Units:  English    Metric   Both
« Previous Day
Next Day »
Daily Weekly Monthly Yearly Custom
  High: Low: Average:
Temperature: 85.7 °F 68.9 °F 76.5 °F
Dew Point: 73.7 °F 65.5 °F 70.1 °F
Humidity: 94 % 63 % 81 %
Wind Speed: 18.0 mph 0.0 mph 2.6 mph
Wind Gust: 34.5 mph - -
Wind:- - SSW
Pressure: 29.88 in 29.73 in -
Precipitation: 0.44 in    
Historical Graphs
 
 
Tabular Data for June 19, 2017
Time Temperature Dew Point Pressure Wind Wind Speed Wind Gust Humidity Rainfall Rate (Hourly) solar Conditions
00:00 79.9 °F 72.4 °F 29.78 in SSW 0.3 mph 11.5 mph 78 % 0.00 in 0.0 W/m2 CLR
00:05 79.8 °F 72.3 °F 29.79 in SSW 1.3 mph 11.5 mph 78 % 0.00 in 0.0 W/m2 CLR
00:10 79.8 °F 72.3 °F 29.79 in SSW 2.0 mph 8.1 mph 78 % 0.00 in 0.0 W/m2 CLR
00:15 79.7 °F 72.2 °F 29.79 in Calm   8.1 mph 78 % 0.00 in 0.0 W/m2 CLR
00:20 79.6 °F 72.1 °F 29.79 in SSW 0.1 mph 8.1 mph 78 % 0.00 in 0.0 W/m2 CLR
00:23 79.6 °F 72.5 °F 29.79 in Calm   4.6 mph 79 % 0.00 in 0.0 W/m2 CLR
00:28 79.4 °F 72.3 °F 29.79 in SSW 1.4 mph 8.1 mph 79 % 0.00 in 0.0 W/m2 CLR
00:33 79.3 °F 72.2 °F 29.79 in Calm   8.1 mph 79 % 0.00 in 0.0 W/m2 CLR
00:38 79.3 °F 72.2 °F 29.79 in South 0.5 mph 8.1 mph 79 % 0.00 in 0.0 W/m2 CLR
00:43 79.2 °F 72.1 °F 29.79 in Calm   8.1 mph 79 % 0.00 in 0.0 W/m2 CLR
00:48 79.1 °F 72.4 °F 29.79 in Calm   4.6 mph 80 % 0.00 in 0.0 W/m2 CLR
00:53 79.1 °F 72.4 °F 29.79 in Calm   4.6 mph 80 % 0.00 in 0.0 W/m2 CLR
00:58 79.1 °F 72.4 °F 29.79 in Calm   4.6 mph 80 % 0.00 in 0.0 W/m2 CLR
01:03 79.1 °F 72.4 °F 29.79 in Calm   5.8 mph 80 % 0.00 in 0.0 W/m2 CLR
01:08 79.0 °F 72.3 °F 29.79 in Calm   5.8 mph 80 % 0.00 in 0.0 W/m2 CLR
01:13 79.1 °F 72.4 °F 29.79 in Calm   5.8 mph 80 % 0.00 in 0.0 W/m2 CLR
01:18 79.0 °F 72.3 °F 29.79 in SW 0.1 mph 4.6 mph 80 % 0.00 in 0.0 W/m2 CLR
01:23 79.1 °F 72.4 °F 29.79 in Calm   5.8 mph 80 % 0.00 in 0.0 W/m2 CLR
01:28 79.1 °F 72.4 °F 29.79 in SSE 0.6 mph 5.8 mph 80 % 0.00 in 0.0 W/m2 CLR
01:29 79.1 °F 72.4 °F 29.79 in South 0.1 mph 5.8 mph 80 % 0.00 in 0.0 W/m2 CLR
01:34 79.1 °F 72.0 °F 29.79 in SW 2.0 mph 5.8 mph 79 % 0.00 in 0.0 W/m2 CLR
01:39 79.1 °F 72.4 °F 29.78 in SW 1.8 mph 6.9 mph 80 % 0.00 in 0.0 W/m2 CLR
01:44 79.1 °F 72.4 °F 29.78 in SSW 0.4 mph 10.4 mph 80 % 0.00 in 0.0 W/m2 CLR
01:49 79.1 °F 72.4 °F 29.78 in Calm   10.4 mph 80 % 0.00 in 0.0 W/m2 CLR
01:54 79.0 °F 72.3 °F 29.78 in Calm   5.8 mph 80 % 0.00 in 0.0 W/m2 CLR
02:00 78.9 °F 72.2 °F 29.78 in Calm   1.2 mph 80 % 0.00 in 0.0 W/m2 CLR
02:05 78.8 °F 72.1 °F 29.79 in Calm   1.2 mph 80 % 0.00 in 0.0 W/m2 SCT
02:10 78.7 °F 72.0 °F 29.78 in SSW 2.3 mph 5.8 mph 80 % 0.00 in 0.0 W/m2 SCT
02:15 78.7 °F 72.0 °F 29.78 in SSW 1.1 mph 5.8 mph 80 % 0.00 in 0.0 W/m2 SCT
02:20 78.7 °F 72.0 °F 29.78 in SSW 0.3 mph 9.2 mph 80 % 0.00 in 0.0 W/m2 SCT
02:25 78.8 °F 72.1 °F 29.78 in SSW 0.5 mph 9.2 mph 80 % 0.00 in 0.0 W/m2 SCT
02:30 78.7 °F 72.0 °F 29.78 in SW 2.1 mph 5.8 mph 80 % 0.00 in 0.0 W/m2 SCT
02:35 78.7 °F 72.0 °F 29.78 in South 2.5 mph 8.1 mph 80 % 0.00 in 0.0 W/m2 SCT
02:40 78.7 °F 72.0 °F 29.78 in SSW 5.1 mph 10.4 mph 80 % 0.00 in 0.0 W/m2 SCT
02:45 78.6 °F 71.9 °F 29.78 in SSW 2.6 mph 10.4 mph 80 % 0.00 in 0.0 W/m2 SCT
02:50 78.6 °F 71.9 °F 29.78 in SW 3.5 mph 9.2 mph 80 % 0.00 in 0.0 W/m2 SCT
02:55 78.5 °F 71.8 °F 29.78 in SSW 3.8 mph 9.2 mph 80 % 0.00 in 0.0 W/m2 SCT
03:00 78.4 °F 72.1 °F 29.78 in SSW 3.0 mph 6.9 mph 81 % 0.00 in 0.0 W/m2 SCT
03:05 78.3 °F 72.0 °F 29.78 in SSW 1.3 mph 4.6 mph 81 % 0.00 in 0.0 W/m2 FEW
03:10 78.3 °F 72.0 °F 29.78 in SSW 2.6 mph 5.8 mph 81 % 0.00 in 0.0 W/m2 FEW
03:15 78.2 °F 71.9 °F 29.78 in South 3.7 mph 8.1 mph 81 % 0.00 in 0.0 W/m2 FEW
03:20 78.2 °F 71.9 °F 29.78 in SW 2.5 mph 8.1 mph 81 % 0.00 in 0.0 W/m2 FEW
03:25 78.2 °F 71.9 °F 29.78 in WSW 2.7 mph 6.9 mph 81 % 0.00 in 0.0 W/m2 FEW
03:30 78.1 °F 71.8 °F 29.78 in SW 4.4 mph 8.1 mph 81 % 0.00 in 0.0 W/m2 FEW
03:35 78.1 °F 71.8 °F 29.78 in SSW 2.2 mph 8.1 mph 81 % 0.00 in 0.0 W/m2 FEW
03:40 78.1 °F 71.8 °F 29.78 in SW 3.0 mph 8.1 mph 81 % 0.00 in 0.0 W/m2 FEW
03:43 78.1 °F 71.8 °F 29.78 in SSW 5.1 mph 8.1 mph 81 % 0.00 in 0.0 W/m2 FEW
03:48 78.1 °F 71.8 °F 29.78 in SW 4.1 mph 8.1 mph 81 % 0.00 in 0.0 W/m2 FEW
03:53 78.1 °F 71.8 °F 29.78 in SSW 2.2 mph 9.2 mph 81 % 0.00 in 0.0 W/m2 FEW
04:04 78.0 °F 71.7 °F 29.78 in SW 4.0 mph 9.2 mph 81 % 0.00 in 0.0 W/m2 SCT
04:09 77.9 °F 71.6 °F 29.79 in SSW 3.4 mph 9.2 mph 81 % 0.00 in 0.0 W/m2 SCT
04:14 77.9 °F 71.6 °F 29.79 in SSW 6.4 mph 8.1 mph 81 % 0.00 in 0.0 W/m2 SCT
04:19 77.8 °F 71.5 °F 29.79 in SSW 5.6 mph 9.2 mph 81 % 0.00 in 0.0 W/m2 SCT
04:24 77.8 °F 71.5 °F 29.79 in SW 4.7 mph 9.2 mph 81 % 0.00 in 0.0 W/m2 SCT
04:29 77.8 °F 71.5 °F 29.79 in SW 4.6 mph 9.2 mph 81 % 0.00 in 0.0 W/m2 SCT
04:34 77.8 °F 71.5 °F 29.79 in SSW 2.0 mph 6.9 mph 81 % 0.00 in 0.0 W/m2 SCT
04:39 77.7 °F 71.4 °F 29.79 in SSW 3.8 mph 5.8 mph 81 % 0.00 in 0.0 W/m2 SCT
04:44 77.7 °F 71.4 °F 29.79 in SW 5.4 mph 9.2 mph 81 % 0.00 in 0.0 W/m2 SCT
04:49 77.7 °F 71.4 °F 29.79 in SSW 3.7 mph 9.2 mph 81 % 0.00 in 0.0 W/m2 SCT
04:54 77.7 °F 71.0 °F 29.79 in SW 3.6 mph 8.1 mph 80 % 0.00 in 0.0 W/m2 SCT
04:59 77.7 °F 71.0 °F 29.79 in SW 2.9 mph 8.1 mph 80 % 0.00 in 0.0 W/m2 SCT
05:04 77.6 °F 70.9 °F 29.79 in SSW 3.4 mph 6.9 mph 80 % 0.00 in 0.0 W/m2 OVC
05:09 77.5 °F 70.8 °F 29.79 in SSW 3.4 mph 6.9 mph 80 % 0.00 in 0.0 W/m2 OVC
05:14 77.4 °F 70.7 °F 29.79 in SSW 0.1 mph 6.9 mph 80 % 0.00 in 0.0 W/m2 OVC
05:19 77.4 °F 71.1 °F 29.79 in SSW 3.9 mph 6.9 mph 81 % 0.00 in 0.0 W/m2 OVC
05:24 77.3 °F 71.0 °F 29.79 in South 2.0 mph 6.9 mph 81 % 0.00 in 0.0 W/m2 OVC
05:29 77.2 °F 70.9 °F 29.79 in SSW 2.0 mph 10.4 mph 81 % 0.00 in 0.0 W/m2 OVC
05:34 77.2 °F 70.5 °F 29.80 in SSW 3.8 mph 10.4 mph 80 % 0.00 in 0.0 W/m2 OVC
05:39 77.2 °F 70.5 °F 29.79 in SSW 1.5 mph 11.5 mph 80 % 0.00 in 5.0 W/m2 OVC
05:44 77.1 °F 70.5 °F 29.79 in SSW 3.2 mph 11.5 mph 80 % 0.00 in 9.0 W/m2 OVC
05:49 77.0 °F 70.4 °F 29.79 in Calm   4.6 mph 80 % 0.00 in 9.0 W/m2 OVC
05:54 76.9 °F 70.6 °F 29.79 in SSW 1.1 mph 8.1 mph 81 % 0.00 in 11.0 W/m2 OVC
05:55 76.9 °F 70.6 °F 29.79 in Calm   8.1 mph 81 % 0.00 in 12.0 W/m2 OVC
06:00 76.8 °F 70.5 °F 29.79 in Calm   8.1 mph 81 % 0.00 in 12.0 W/m2 OVC
06:06 76.8 °F 70.5 °F 29.80 in WSW 0.5 mph 3.5 mph 81 % 0.00 in 16.0 W/m2 CLR
06:11 76.8 °F 70.5 °F 29.80 in Calm   3.5 mph 81 % 0.00 in 18.0 W/m2 CLR
06:16 76.7 °F 70.4 °F 29.80 in Calm   4.6 mph 81 % 0.00 in 23.0 W/m2 CLR
06:21 76.7 °F 70.4 °F 29.80 in SW 2.0 mph 4.6 mph 81 % 0.00 in 26.0 W/m2 CLR
06:26 76.8 °F 70.5 °F 29.80 in SW 0.4 mph 5.8 mph 81 % 0.00 in 25.0 W/m2 CLR
06:31 76.9 °F 70.6 °F 29.80 in WSW 2.0 mph 8.1 mph 81 % 0.00 in 25.0 W/m2 CLR
06:36 77.0 °F 70.7 °F 29.80 in SW 0.4 mph 8.1 mph 81 % 0.00 in 25.0 W/m2 CLR
06:41 77.0 °F 70.4 °F 29.81 in Calm   4.6 mph 80 % 0.00 in 23.0 W/m2 CLR
06:46 76.9 °F 70.3 °F 29.81 in WSW 2.6 mph 5.8 mph 80 % 0.00 in 28.0 W/m2 CLR
06:51 77.0 °F 70.4 °F 29.81 in Calm   5.8 mph 80 % 0.00 in 37.0 W/m2 CLR
06:56 77.2 °F 70.5 °F 29.81 in SSW 2.6 mph 5.8 mph 80 % 0.00 in 44.0 W/m2 CLR
07:01 77.3 °F 70.6 °F 29.81 in SSW 1.2 mph 4.6 mph 80 % 0.00 in 44.0 W/m2 CLR
07:06 77.4 °F 70.7 °F 29.81 in SSW 0.8 mph 4.6 mph 80 % 0.00 in 63.0 W/m2 CLR
07:11 77.6 °F 70.9 °F 29.82 in SSW 4.2 mph 6.9 mph 80 % 0.00 in 109.0 W/m2 CLR
07:16 77.8 °F 70.8 °F 29.82 in Calm   8.1 mph 79 % 0.00 in 69.0 W/m2 CLR
07:21 77.8 °F 70.8 °F 29.82 in SSW 0.8 mph 8.1 mph 79 % 0.00 in 69.0 W/m2 CLR
07:26 77.8 °F 70.8 °F 29.82 in SW 3.6 mph 11.5 mph 79 % 0.00 in 109.0 W/m2 CLR
07:31 77.7 °F 70.7 °F 29.81 in Calm   11.5 mph 79 % 0.00 in 97.0 W/m2 CLR
07:36 77.9 °F 70.9 °F 29.82 in SW 1.8 mph 6.9 mph 79 % 0.00 in 104.0 W/m2 CLR
07:41 78.0 °F 71.0 °F 29.82 in SSW 2.6 mph 9.2 mph 79 % 0.00 in 84.0 W/m2 CLR
07:46 78.1 °F 71.1 °F 29.82 in SSW 3.4 mph 11.5 mph 79 % 0.00 in 105.0 W/m2 CLR
07:51 78.1 °F 71.1 °F 29.82 in South 3.0 mph 11.5 mph 79 % 0.00 in 105.0 W/m2 CLR
07:56 78.2 °F 71.2 °F 29.82 in SW 5.4 mph 11.5 mph 79 % 0.00 in 120.0 W/m2 CLR
08:01 78.3 °F 71.2 °F 29.82 in SSW 7.3 mph 11.5 mph 79 % 0.00 in 93.0 W/m2 FEW
08:06 78.5 °F 71.4 °F 29.82 in South 5.0 mph 11.5 mph 79 % 0.00 in 128.0 W/m2 FEW
08:11 78.7 °F 71.3 °F 29.82 in South 6.4 mph 13.8 mph 78 % 0.00 in 206.0 W/m2 FEW
08:13 78.8 °F 71.4 °F 29.82 in SSW 7.0 mph 13.8 mph 78 % 0.00 in 239.0 W/m2 FEW
08:18 79.1 °F 71.6 °F 29.82 in South 8.0 mph 15.0 mph 78 % 0.00 in 142.0 W/m2 FEW
08:23 79.0 °F 71.6 °F 29.82 in SSW 8.6 mph 15.0 mph 78 % 0.00 in 125.0 W/m2 FEW
08:28 78.8 °F 71.4 °F 29.82 in SSW 8.0 mph 13.8 mph 78 % 0.00 in 135.0 W/m2 FEW
08:33 78.9 °F 71.5 °F 29.82 in SSW 5.0 mph 13.8 mph 78 % 0.00 in 227.0 W/m2 FEW
08:38 79.1 °F 71.6 °F 29.82 in SSW 6.1 mph 12.7 mph 78 % 0.00 in 260.0 W/m2 FEW
08:43 79.4 °F 71.6 °F 29.82 in SSW 6.4 mph 11.5 mph 77 % 0.00 in 179.0 W/m2 FEW
08:48 79.8 °F 71.6 °F 29.82 in SSW 5.0 mph 11.5 mph 76 % 0.00 in 109.0 W/m2 FEW
08:53 80.1 °F 72.2 °F 29.81 in SSW 1.5 mph 9.2 mph 77 % 0.00 in 97.0 W/m2 FEW
08:58 80.4 °F 72.1 °F 29.81 in SW 1.2 mph 9.2 mph 76 % 0.00 in 192.0 W/m2 FEW
09:03 80.5 °F 71.8 °F 29.81 in South 9.5 mph 15.0 mph 75 % 0.00 in 118.0 W/m2 BKN
09:08 80.3 °F 71.6 °F 29.82 in SSW 4.7 mph 16.1 mph 75 % 0.00 in 466.0 W/m2 BKN
09:13 80.6 °F 72.3 °F 29.82 in SSW 4.2 mph 16.1 mph 76 % 0.00 in 529.0 W/m2 BKN
09:18 80.9 °F 71.8 °F 29.81 in SSW 6.2 mph 11.5 mph 74 % 0.00 in 640.0 W/m2 BKN
09:23 81.1 °F 72.0 °F 29.81 in South 7.4 mph 15.0 mph 74 % 0.00 in 705.0 W/m2 BKN
09:28 81.2 °F 72.1 °F 29.82 in South 6.9 mph 15.0 mph 74 % 0.00 in 236.0 W/m2 BKN
09:33 81.1 °F 72.0 °F 29.81 in South 4.8 mph 11.5 mph 74 % 0.00 in 260.0 W/m2 BKN
09:39 81.4 °F 71.9 °F 29.81 in SW 2.3 mph 11.5 mph 73 % 0.00 in 376.0 W/m2 BKN
09:43 81.5 °F 72.0 °F 29.81 in SSW 7.4 mph 10.4 mph 73 % 0.00 in 288.0 W/m2 BKN
09:48 81.4 °F 71.9 °F 29.81 in SSW 7.1 mph 11.5 mph 73 % 0.00 in 258.0 W/m2 BKN
09:53 81.2 °F 71.7 °F 29.81 in SW 8.7 mph 12.7 mph 73 % 0.00 in 315.0 W/m2 BKN
09:58 81.4 °F 71.9 °F 29.81 in SSW 5.2 mph 12.7 mph 73 % 0.00 in 666.0 W/m2 BKN
10:03 82.1 °F 72.2 °F 29.81 in SSW 1.9 mph 12.7 mph 72 % 0.00 in 884.0 W/m2 OVC
10:08 81.9 °F 72.0 °F 29.81 in SSW 4.1 mph 11.5 mph 72 % 0.00 in 346.0 W/m2 OVC
10:13 81.3 °F 71.8 °F 29.81 in SSW 6.4 mph 13.8 mph 73 % 0.00 in 311.0 W/m2 OVC
10:18 81.3 °F 72.2 °F 29.81 in WSW 5.3 mph 13.8 mph 74 % 0.00 in 387.0 W/m2 OVC
10:23 81.7 °F 72.2 °F 29.81 in SSW 7.0 mph 11.5 mph 73 % 0.00 in 515.0 W/m2 OVC
10:24 81.8 °F 72.3 °F 29.81 in SSW 3.7 mph 11.5 mph 73 % 0.00 in 427.0 W/m2 OVC
10:29 82.3 °F 72.4 °F 29.81 in SSW 6.9 mph 11.5 mph 72 % 0.00 in 381.0 W/m2 OVC
10:34 82.1 °F 71.8 °F 29.81 in SSW 3.9 mph 11.5 mph 71 % 0.00 in 265.0 W/m2 OVC
10:39 82.2 °F 72.3 °F 29.81 in SW 4.3 mph 11.5 mph 72 % 0.00 in 879.0 W/m2 BKN
10:44 83.3 °F 72.9 °F 29.81 in SW 5.2 mph 11.5 mph 71 % 0.00 in 911.0 W/m2 BKN
10:49 83.4 °F 72.6 °F 29.81 in South 8.4 mph 15.0 mph 70 % 0.00 in 749.0 W/m2 BKN
10:54 83.5 °F 73.1 °F 29.81 in SSW 3.3 mph 15.0 mph 71 % 0.00 in 912.0 W/m2 BKN
10:59 83.5 °F 72.3 °F 29.81 in SSW 7.8 mph 15.0 mph 69 % 0.00 in 935.0 W/m2 BKN
11:04 83.2 °F 72.0 °F 29.80 in South 1.7 mph 12.7 mph 69 % 0.00 in 288.0 W/m2 BKN
11:09 82.7 °F 71.9 °F 29.80 in SSW 5.6 mph 12.7 mph 70 % 0.00 in 213.0 W/m2 BKN
11:14 82.6 °F 72.2 °F 29.81 in South 8.6 mph 12.7 mph 71 % 0.00 in 251.0 W/m2 BKN
11:19 82.5 °F 72.1 °F 29.80 in SSW 2.2 mph 12.7 mph 71 % 0.00 in 306.0 W/m2 BKN
11:24 83.0 °F 72.2 °F 29.80 in South 4.6 mph 12.7 mph 70 % 0.00 in 279.0 W/m2 BKN
11:29 83.1 °F 72.3 °F 29.80 in SW 4.7 mph 11.5 mph 70 % 0.00 in 406.0 W/m2 BKN
11:34 83.4 °F 73.0 °F 29.79 in South 2.4 mph 11.5 mph 71 % 0.00 in 411.0 W/m2 BKN
11:39 83.7 °F 72.9 °F 29.79 in SSW 4.3 mph 11.5 mph 70 % 0.00 in 339.0 W/m2 BKN
11:44 83.4 °F 72.2 °F 29.80 in SSW 5.3 mph 12.7 mph 69 % 0.00 in 401.0 W/m2 BKN
11:49 83.3 °F 72.5 °F 29.79 in SW 6.0 mph 12.7 mph 70 % 0.00 in 397.0 W/m2 BKN
11:55 83.2 °F 72.0 °F 29.79 in SSW 6.8 mph 12.7 mph 69 % 0.00 in 281.0 W/m2 BKN
12:00 83.1 °F 72.3 °F 29.79 in SSW 7.6 mph 13.8 mph 70 % 0.00 in 399.0 W/m2 BKN
12:05 83.6 °F 72.3 °F 29.79 in South 8.2 mph 13.8 mph 69 % 0.00 in 468.0 W/m2 BKN
12:10 83.9 °F 72.2 °F 29.79 in SSW 6.8 mph 16.1 mph 68 % 0.00 in 357.0 W/m2 BKN
12:15 83.7 °F 72.4 °F 29.78 in South 5.0 mph 16.1 mph 69 % 0.00 in 243.0 W/m2 BKN
12:20 84.1 °F 72.8 °F 29.78 in SSW 7.1 mph 15.0 mph 69 % 0.00 in 1044.0 W/m2 BKN
12:25 84.8 °F 73.1 °F 29.78 in South 4.1 mph 15.0 mph 68 % 0.00 in 1044.0 W/m2 BKN
12:30 85.0 °F 72.4 °F 29.78 in SSW 6.3 mph 16.1 mph 66 % 0.00 in 995.0 W/m2 BKN
12:35 85.5 °F 72.4 °F 29.78 in SSW 9.3 mph 16.1 mph 65 % 0.00 in 701.0 W/m2 BKN
12:40 85.6 °F 72.0 °F 29.77 in SW 7.6 mph 19.6 mph 64 % 0.00 in 434.0 W/m2 BKN
12:45 85.1 °F 71.5 °F 29.77 in SSW 7.7 mph 19.6 mph 64 % 0.00 in 334.0 W/m2 BKN
12:50 84.7 °F 72.1 °F 29.77 in SW 7.9 mph 19.6 mph 66 % 0.00 in 323.0 W/m2 BKN
12:55 85.0 °F 72.8 °F 29.76 in South 7.2 mph 19.6 mph 67 % 0.00 in 1044.0 W/m2 BKN
13:00 85.7 °F 73.5 °F 29.76 in ESE 3.4 mph 15.0 mph 67 % 0.00 in 1178.0 W/m2 BKN
13:05 85.5 °F 73.7 °F 29.76 in SSW 5.1 mph 13.8 mph 68 % 0.00 in 294.0 W/m2 BKN
13:10 84.4 °F 72.7 °F 29.76 in SSW 3.0 mph 13.8 mph 68 % 0.00 in 137.0 W/m2 BKN
13:16 84.1 °F 72.4 °F 29.76 in SSE 4.8 mph 13.8 mph 68 % 0.00 in 1085.0 W/m2 BKN
13:21 84.9 °F 72.7 °F 29.76 in SSW 8.4 mph 12.7 mph 67 % 0.00 in 823.0 W/m2 BKN
13:26 84.5 °F 71.9 °F 29.76 in South 7.0 mph 13.8 mph 66 % 0.00 in 137.0 W/m2 BKN
13:31 83.9 °F 71.3 °F 29.75 in SSW 3.8 mph 13.8 mph 66 % 0.00 in 79.0 W/m2 BKN
13:36 83.1 °F 71.4 °F 29.75 in South 4.9 mph 16.1 mph 68 % 0.00 in 91.0 W/m2 BKN
13:41 82.6 °F 71.4 °F 29.75 in SSW 0.1 mph 16.1 mph 69 % 0.00 in 90.0 W/m2 BKN
13:46 82.4 °F 71.6 °F 29.75 in SSE 0.8 mph 12.7 mph 70 % 0.00 in 179.0 W/m2 BKN
13:51 82.3 °F 71.1 °F 29.75 in South 10.1 mph 17.3 mph 69 % 0.00 in 221.0 W/m2 BKN
13:56 83.4 °F 71.7 °F 29.75 in SW 10.3 mph 17.3 mph 68 % 0.00 in 807.0 W/m2 BKN
14:01 84.6 °F 72.0 °F 29.74 in SSE 5.3 mph 16.1 mph 66 % 0.00 in 434.0 W/m2 SCT
14:06 85.1 °F 71.1 °F 29.75 in South 12.6 mph 25.3 mph 63 % 0.00 in 434.0 W/m2 SCT
14:11 85.1 °F 72.0 °F 29.75 in SW 7.7 mph 25.3 mph 65 % 0.00 in 863.0 W/m2 SCT
14:16 85.3 °F 71.7 °F 29.75 in South 8.5 mph 20.7 mph 64 % 0.00 in 422.0 W/m2 SCT
14:21 84.7 °F 71.2 °F 29.75 in SSW 13.0 mph 21.9 mph 64 % 0.00 in 357.0 W/m2 FEW
14:26 84.4 °F 70.9 °F 29.74 in South 8.0 mph 21.9 mph 64 % 0.00 in 383.0 W/m2 FEW
14:31 84.6 °F 71.5 °F 29.74 in SSE 3.9 mph 19.6 mph 65 % 0.00 in 376.0 W/m2 FEW
14:36 84.8 °F 71.7 °F 29.74 in South 3.6 mph 19.6 mph 65 % 0.00 in 524.0 W/m2 FEW
14:41 84.9 °F 72.3 °F 29.74 in SSW 2.6 mph 17.3 mph 66 % 0.00 in 413.0 W/m2 FEW
14:46 84.6 °F 72.0 °F 29.73 in South 0.7 mph 17.3 mph 66 % 0.00 in 339.0 W/m2 FEW
14:51 84.6 °F 71.5 °F 29.74 in South 5.6 mph 12.7 mph 65 % 0.00 in 359.0 W/m2 BKN
14:56 84.3 °F 71.7 °F 29.73 in SSW 0.9 mph 15.0 mph 66 % 0.00 in 323.0 W/m2 BKN
15:01 84.3 °F 71.7 °F 29.74 in South 9.7 mph 15.0 mph 66 % 0.00 in 225.0 W/m2 BKN
15:06 84.0 °F 71.4 °F 29.74 in SW 9.4 mph 16.1 mph 66 % 0.00 in 186.0 W/m2 BKN
15:11 83.6 °F 71.5 °F 29.76 in SSW 7.4 mph 23.0 mph 67 % 0.00 in 109.0 W/m2 BKN
15:16 81.6 °F 68.2 °F 29.81 in West 18.0 mph 34.5 mph 64 % 0.00 in 0.0 W/m2 BKN
15:21 76.0 °F 66.3 °F 29.80 in SW 6.6 mph 34.5 mph 72 % 0.09 in 7.0 W/m2 RA
15:26 72.4 °F 65.5 °F 29.81 in WSW 5.9 mph 34.5 mph 79 % 0.16 in 12.0 W/m2 RA
15:31 71.0 °F 65.6 °F 29.80 in SE 2.1 mph 17.3 mph 83 % 0.24 in 9.0 W/m2 RA
15:36 70.2 °F 65.5 °F 29.80 in WSW 6.4 mph 17.3 mph 85 % 0.29 in 12.0 W/m2 RA
15:41 69.6 °F 65.6 °F 29.80 in SW 3.7 mph 12.7 mph 87 % 0.29 in 16.0 W/m2 RA
15:47 69.4 °F 65.7 °F 29.79 in SW 0.4 mph 12.7 mph 88 % 0.30 in 16.0 W/m2 RA
15:52 69.1 °F 65.7 °F 29.79 in SW 0.4 mph 6.9 mph 89 % 0.30 in 26.0 W/m2 RA
15:57 68.9 °F 65.5 °F 29.78 in Calm   4.6 mph 89 % 0.31 in 47.0 W/m2 RA
16:02 69.0 °F 65.9 °F 29.78 in Calm   3.5 mph 90 % 0.31 in 83.0 W/m2 OVC
16:07 68.9 °F 65.8 °F 29.78 in WSW 0.3 mph 2.3 mph 90 % 0.31 in 83.0 W/m2 OVC
16:12 69.1 °F 66.4 °F 29.79 in SW 0.8 mph 3.5 mph 91 % 0.31 in 116.0 W/m2 OVC
16:17 69.1 °F 66.4 °F 29.80 in Calm   4.6 mph 91 % 0.30 in 102.0 W/m2 OVC
16:22 69.2 °F 66.5 °F 29.80 in Calm   4.6 mph 91 % 0.22 in 76.0 W/m2 OVC
16:27 69.3 °F 66.6 °F 29.80 in SSW 0.3 mph 4.6 mph 91 % 0.12 in 53.0 W/m2 OVC
16:30 69.2 °F 66.5 °F 29.80 in WSW 1.9 mph 6.9 mph 91 % 0.08 in 47.0 W/m2 RA
16:35 69.3 °F 66.6 °F 29.81 in SW 1.3 mph 6.9 mph 91 % 0.03 in 42.0 W/m2 RA
16:40 69.3 °F 66.6 °F 29.82 in Calm   6.9 mph 91 % 0.03 in 40.0 W/m2 OVC
16:45 69.4 °F 66.7 °F 29.81 in Calm   4.6 mph 91 % 0.03 in 26.0 W/m2 OVC
16:50 69.2 °F 66.5 °F 29.81 in Calm   3.5 mph 91 % 0.03 in 19.0 W/m2 RA
16:55 69.4 °F 67.0 °F 29.81 in SSW 0.8 mph 3.5 mph 92 % 0.03 in 16.0 W/m2 RA
17:00 69.3 °F 66.6 °F 29.81 in Calm   3.5 mph 91 % 0.04 in 12.0 W/m2 RA
17:05 69.3 °F 66.9 °F 29.81 in Calm   3.5 mph 92 % 0.05 in 12.0 W/m2 -RA
17:10 69.3 °F 66.9 °F 29.81 in Calm   1.2 mph 92 % 0.06 in 18.0 W/m2 -RA
17:15 69.3 °F 66.9 °F 29.80 in Calm     92 % 0.06 in 19.0 W/m2 -RA
17:20 69.1 °F 66.7 °F 29.80 in Calm   1.2 mph 92 % 0.07 in 21.0 W/m2 -RA
17:25 69.2 °F 66.8 °F 29.80 in Calm   1.2 mph 92 % 0.07 in 26.0 W/m2 -RA
17:30 69.2 °F 66.8 °F 29.80 in WSW 0.4 mph 4.6 mph 92 % 0.06 in 28.0 W/m2 -RA
17:35 69.3 °F 67.2 °F 29.80 in SW 0.4 mph 4.6 mph 93 % 0.07 in 28.0 W/m2 RA
17:41 69.4 °F 67.3 °F 29.79 in Calm   3.5 mph 93 % 0.08 in 28.0 W/m2 RA
17:46 69.5 °F 67.4 °F 29.80 in SW 0.1 mph 3.5 mph 93 % 0.08 in 25.0 W/m2 RA
17:47 69.4 °F 67.3 °F 29.80 in Calm   3.5 mph 93 % 0.08 in 23.0 W/m2 RA
17:52 69.4 °F 67.3 °F 29.79 in SW 0.1 mph 3.5 mph 93 % 0.08 in 19.0 W/m2 RA
17:57 69.3 °F 67.2 °F 29.79 in Calm   3.5 mph 93 % 0.08 in 19.0 W/m2 RA
18:02 69.3 °F 67.2 °F 29.79 in SW 0.1 mph 3.5 mph 93 % 0.07 in 21.0 W/m2 -RA
18:07 69.3 °F 67.2 °F 29.80 in Calm   1.2 mph 93 % 0.06 in 25.0 W/m2 -RA
18:12 69.4 °F 67.3 °F 29.80 in WSW 2.0 mph 3.5 mph 93 % 0.05 in 30.0 W/m2 -RA
18:17 69.2 °F 67.1 °F 29.80 in SW 0.8 mph 4.6 mph 93 % 0.06 in 30.0 W/m2 -RA
18:22 69.3 °F 67.2 °F 29.80 in Calm   4.6 mph 93 % 0.05 in 23.0 W/m2 -RA
18:27 69.2 °F 67.1 °F 29.79 in Calm   3.5 mph 93 % 0.05 in 18.0 W/m2 -RA
18:29 69.3 °F 67.2 °F 29.80 in SW 0.1 mph 2.3 mph 93 % 0.05 in 18.0 W/m2 -RA
18:34 69.2 °F 67.1 °F 29.80 in SSW 0.5 mph 3.5 mph 93 % 0.04 in 19.0 W/m2 -RA
18:39 69.2 °F 67.1 °F 29.80 in Calm   3.5 mph 93 % 0.04 in 40.0 W/m2 -RA
18:44 69.2 °F 67.1 °F 29.80 in Calm   3.5 mph 93 % 0.03 in 44.0 W/m2 -RA
18:49 69.2 °F 67.4 °F 29.81 in Calm   3.5 mph 94 % 0.03 in 51.0 W/m2 -RA
18:54 69.3 °F 67.2 °F 29.81 in SSW 1.4 mph 4.6 mph 93 % 0.02 in 49.0 W/m2 OVC
18:59 69.4 °F 67.6 °F 29.81 in SSW 2.1 mph 4.6 mph 94 % 0.01 in 58.0 W/m2 OVC
19:04 69.3 °F 67.2 °F 29.81 in SSW 0.9 mph 4.6 mph 93 % 0.01 in 46.0 W/m2 -RA
19:09 69.2 °F 67.1 °F 29.81 in Calm   3.5 mph 93 % 0.01 in 47.0 W/m2 -RA
19:14 69.2 °F 67.1 °F 29.82 in SSW 2.0 mph 5.8 mph 93 % 0.01 in 30.0 W/m2 -RA
19:19 69.5 °F 67.7 °F 29.82 in SSW 0.4 mph 5.8 mph 94 % 0.00 in 23.0 W/m2 -RA
19:24 69.3 °F 67.2 °F 29.82 in SSW 0.8 mph 4.6 mph 93 % 0.00 in 49.0 W/m2 -RA
19:29 69.2 °F 67.1 °F 29.82 in SSW 0.7 mph 4.6 mph 93 % 0.00 in 44.0 W/m2 -RA
19:34 69.3 °F 67.2 °F 29.82 in SSW 0.6 mph 4.6 mph 93 % 0.00 in 39.0 W/m2 -RA
19:39 69.3 °F 67.2 °F 29.83 in SSW 0.3 mph 4.6 mph 93 % 0.00 in 40.0 W/m2 -RA
19:44 69.5 °F 67.4 °F 29.82 in Calm   3.5 mph 93 % 0.00 in 40.0 W/m2 -RA
19:49 69.5 °F 67.4 °F 29.82 in Calm   3.5 mph 93 % 0.00 in 40.0 W/m2 -RA
19:54 69.6 °F 67.5 °F 29.82 in Calm     93 % 0.00 in 37.0 W/m2 -RA
19:59 69.6 °F 67.5 °F 29.82 in Calm     93 % 0.00 in 37.0 W/m2 -RA
20:04 69.6 °F 67.5 °F 29.82 in Calm     93 % 0.00 in 35.0 W/m2 BKN
20:09 69.6 °F 67.5 °F 29.81 in Calm     93 % 0.00 in 26.0 W/m2 BKN
20:14 69.6 °F 67.5 °F 29.82 in Calm   1.2 mph 93 % 0.00 in 23.0 W/m2 BKN
20:19 69.5 °F 67.4 °F 29.81 in Calm   2.3 mph 93 % 0.00 in 19.0 W/m2 BKN
20:24 69.5 °F 67.4 °F 29.82 in SSW 0.2 mph 2.3 mph 93 % 0.00 in 19.0 W/m2 BKN
20:29 69.5 °F 67.4 °F 29.82 in Calm   2.3 mph 93 % 0.00 in 14.0 W/m2 BKN
20:34 69.5 °F 67.4 °F 29.83 in SSW 1.1 mph 3.5 mph 93 % 0.00 in 12.0 W/m2 BKN
20:39 69.4 °F 67.3 °F 29.83 in SSW 2.5 mph 4.6 mph 93 % 0.00 in 9.0 W/m2 BKN
20:44 69.2 °F 67.1 °F 29.84 in Calm   4.6 mph 93 % 0.00 in 5.0 W/m2 BKN
20:49 69.2 °F 67.1 °F 29.83 in Calm   4.6 mph 93 % 0.00 in 0.0 W/m2 BKN
20:54 69.3 °F 67.2 °F 29.84 in Calm     93 % 0.00 in 0.0 W/m2 BKN
20:59 69.4 °F 67.3 °F 29.84 in Calm     93 % 0.00 in 0.0 W/m2 BKN
21:04 69.5 °F 67.7 °F 29.85 in Calm     94 % 0.00 in 0.0 W/m2 SCT
21:09 69.4 °F 67.3 °F 29.84 in Calm     93 % 0.00 in 0.0 W/m2 SCT
21:14 69.5 °F 67.7 °F 29.85 in Calm     94 % 0.00 in 0.0 W/m2 SCT
21:20 69.6 °F 67.5 °F 29.85 in Calm   1.2 mph 93 % 0.00 in 0.0 W/m2 BKN
21:25 69.5 °F 67.7 °F 29.86 in Calm     94 % 0.00 in 0.0 W/m2 BKN
21:30 69.4 °F 67.6 °F 29.86 in Calm     94 % 0.00 in 0.0 W/m2 BKN
21:35 69.4 °F 67.6 °F 29.86 in Calm   2.3 mph 94 % 0.00 in 0.0 W/m2 BKN
21:40 69.4 °F 67.6 °F 29.86 in Calm     94 % 0.00 in 0.0 W/m2 BKN
21:45 69.3 °F 67.5 °F 29.86 in Calm     94 % 0.00 in 0.0 W/m2 BKN
21:50 69.5 °F 67.7 °F 29.86 in Calm     94 % 0.00 in 0.0 W/m2 BKN
22:00 69.4 °F 67.6 °F 29.87 in Calm     94 % 0.00 in 0.0 W/m2 BKN
22:05 69.3 °F 67.5 °F 29.87 in Calm     94 % 0.00 in 0.0 W/m2 OVC
22:10 69.5 °F 67.7 °F 29.87 in Calm   3.0 mph 94 % 0.00 in 0.0 W/m2 OVC
22:15 69.6 °F 67.8 °F 29.87 in Calm   3.5 mph 94 % 0.00 in 0.0 W/m2 OVC
22:25 69.7 °F 67.9 °F 29.87 in Calm     94 % 0.00 in 0.0 W/m2 OVC
22:30 69.5 °F 67.7 °F 29.87 in Calm     94 % 0.00 in 0.0 W/m2 OVC
22:35 69.5 °F 67.7 °F 29.88 in Calm     94 % 0.00 in 0.0 W/m2 SCT
22:40 69.5 °F 67.7 °F 29.88 in Calm     94 % 0.00 in 0.0 W/m2 SCT
22:45 69.5 °F 67.7 °F 29.88 in Calm     94 % 0.00 in 0.0 W/m2 SCT
22:50 69.5 °F 67.7 °F 29.88 in Calm     94 % 0.00 in 0.0 W/m2 SCT
22:55 69.4 °F 67.6 °F 29.88 in Calm     94 % 0.00 in 0.0 W/m2 SCT
23:00 69.5 °F 67.7 °F 29.87 in Calm     94 % 0.00 in 0.0 W/m2 SCT
23:05 69.6 °F 67.8 °F 29.88 in Calm     94 % 0.00 in 0.0 W/m2 BKN
23:10 69.5 °F 67.7 °F 29.87 in Calm     94 % 0.00 in 0.0 W/m2 BKN
23:15 69.5 °F 67.7 °F 29.87 in Calm     94 % 0.00 in 0.0 W/m2 BKN
23:20 69.7 °F 67.9 °F 29.87 in SSW 0.1 mph   94 % 0.00 in 0.0 W/m2 BKN
23:25 69.6 °F 67.8 °F 29.87 in Calm   1.2 mph 94 % 0.00 in 0.0 W/m2 BKN
23:30 69.7 °F 67.9 °F 29.87 in SSW 0.2 mph 3.5 mph 94 % 0.00 in 0.0 W/m2 BKN
23:35 69.7 °F 67.9 °F 29.87 in Calm   3.5 mph 94 % 0.00 in 0.0 W/m2 BKN
23:40 69.7 °F 67.9 °F 29.87 in Calm   3.5 mph 94 % 0.00 in 0.0 W/m2 BKN
23:45 69.7 °F 67.9 °F 29.86 in Calm     94 % 0.00 in 0.0 W/m2 BKN
23:50 69.6 °F 67.8 °F 29.86 in Calm   1.2 mph 94 % 0.00 in 0.0 W/m2 BKN
23:55 69.6 °F 67.8 °F 29.87 in Calm   1.2 mph 94 % 0.00 in 0.0 W/m2 BKN
Air Products Campus Weather
Compliments of Weather Underground - 3.5 mb